Simultaneous Nadir Overpasses (SNOs) Predictions

Prediction of SNOs between GOES-14 and NOAA-20 Satellite Orbit:

Table of predicted SNOs for the next 14.0 days since TLE Epoch: 4/26/2019
Index Date Time (GOES-14) GOES-14 Lat,Lon NOAA-20 Lat,Lon Distance(km) Time Diff (sec)
1 04/28/2019 20:21:08 -0.12,-104.39 -0.10,-104.34 6.76 80
2 05/01/2019 08:24:10 0.12,-104.38 0.29,-105.07 79.33 80
3 05/02/2019 08:08:06 0.13,-104.38 -0.75,-100.54 437.87 80
4 05/03/2019 20:30:02 -0.11,-104.41 -0.43,-105.85 164.05 80
5 05/04/2019 20:08:37 -0.12,-104.40 0.55,-101.31 352.04 80
6 05/06/2019 08:30:24 0.10,-104.37 0.62,-106.58 252.41 80
7 05/07/2019 08:14:19 0.11,-104.37 -0.42,-102.06 264.46 80
8 05/08/2019 20:36:16 -0.09,-104.41 -0.74,-107.37 336.34 80
9 05/09/2019 20:14:50 -0.11,-104.40 0.24,-102.83 179.43 80




NCC Satellite Simultaneous Nadir Overpasses (SNOs) Prediction Service
